Flag for Germany Weather past 2 weeks in Güstrow, Mecklenburg-Western Pomerania, Germany

Now
52 °F

Passing clouds.


Feels Like: 51 °F
Forecast: 42 / 63 °F
Wind: 5 mph from West

Location: Laage

Current Time: May 27, 2015 at 10:34:49 PM

Latest Report: May 27, 2015 at 9:20 PM


Visibility: N/A

Pressure: 30.07 "Hg

Humidity: 72%

Dew point: 43 °F

Location of GüstrowLocation

Historic Weather in Güstrow — Graph

°F

Güstrow temperature yesterday

Maximum temperature yesterday: 57 °F (at 12:20 PM)
Minimum temperature yesterday: 41 °F (at 2:20 AM)
Average temperature yesterday: 51 °F

Past Weeks' High & Low Weather Summary

 TemperatureHumidityPressure
High64 °F (May 22, 4:20 PM)100% (May 15, 1:20 AM)30.27 "Hg (May 15, 1:20 AM)
Low37 °F (May 21, 5:20 AM)44% (May 17, 1:20 PM)29.56 "Hg (May 19, 1:20 AM)
Average51 °F76%29.99 "Hg
* Reported May 12 9:20 PM — May 27 9:20 PM, Güstrow, Weather by CustomWeather, © 2015

Note: Actual official high and low records may vary slightly from our data, if they occured in-between our weather recording intervals... More about our weather records

Advertising

Güstrow weather history for previous 24 hours

 ConditionsComfort  
Time TempWeatherWind HumidityBarometerVisibility
9:20 PM
Wed, May 27
52 °FPassing clouds.5 mph72%30.07 "HgN/A
8:20 PM54 °FPassing clouds.7 mph67%30.07 "HgN/A
7:20 PM55 °FScattered clouds.13 mph59%30.07 "HgN/A
6:20 PM57 °FScattered clouds.17 mph55%30.07 "HgN/A
5:20 PM55 °FBroken clouds.20 mph59%30.09 "HgN/A
4:20 PM54 °FBroken clouds.17 mph63%30.09 "HgN/A
3:20 PM55 °FBroken clouds.21 mph59%30.09 "HgN/A
2:20 PM55 °FBroken clouds.20 mph59%30.09 "HgN/A
1:20 PM54 °FBroken clouds.20 mph63%30.12 "HgN/A
12:20 PM54 °FBroken clouds.16 mph63%30.09 "HgN/A
11:20 AM52 °FPartly sunny.12 mph72%30.09 "HgN/A
10:20 AM50 °FBroken clouds.15 mph82%30.09 "HgN/A
9:20 AM48 °FBroken clouds.9 mph87%30.09 "HgN/A
8:20 AM48 °FBroken clouds.10 mph87%30.09 "HgN/A
7:20 AM46 °FBroken clouds.8 mph93%30.07 "HgN/A
6:20 AM46 °FPartly sunny.8 mph93%30.07 "HgN/A
5:20 AM45 °FDrizzle. Fog.6 mph93%30.07 "Hg3 mi
4:20 AM43 °FPassing clouds.7 mph93%30.07 "HgN/A
3:20 AM45 °FPassing clouds.8 mph87%30.07 "HgN/A
2:20 AM46 °FPassing clouds.10 mph87%30.07 "HgN/A
1:20 AM48 °FPassing clouds.9 mph82%30.07 "HgN/A
12:20 AM46 °FPassing clouds.9 mph82%30.07 "HgN/A
11:20 PM
Tue, May 26
48 °FPassing clouds.10 mph76%30.07 "HgN/A
10:20 PM48 °FScattered clouds.8 mph76%30.07 "HgN/A
Weather by CustomWeather, © 2015

See weather overviewHow to use our weather pages